This is the latest recevied weather packets stored in our database for station/object KA8OAD-10. If no packets are shown the sender has not sent any weather packets the latest 10 day(s).
| Time | Temp. | Humidity | Pressure | Rain* | Wind** | Luminosity | Snow |
|---|---|---|---|---|---|---|---|
| 1778161952 | 10° C | 74% | 1011.3 hPa | 0 mm | - | 156 W/m² | - |
| 1778161050 | 9.44° C | 76% | 1011.4 hPa | 0 mm | - | 67 W/m² | - |
| 1778160750 | 9.44° C | 76% | 1011.4 hPa | 0 mm | - | 77 W/m² | - |
| 1778160454 | 8.89° C | 77% | 1011.5 hPa | 0 mm | - | 76 W/m² | - |
| 1778160152 | 8.89° C | 78% | 1011.5 hPa | 0 mm | - | 84 W/m² | - |
| 1778159852 | 8.89° C | 80% | 1011.5 hPa | 0 mm | - | 102 W/m² | - |
| 1778159551 | 8.33° C | 82% | 1011.5 hPa | 0 mm | - | 135 W/m² | - |
| 1778159251 | 8.33° C | 83% | 1011.5 hPa | 0 mm | - | 113 W/m² | - |
| 1778158950 | 7.78° C | 84% | 1011.4 hPa | 0 mm | - | 93 W/m² | - |
| 1778158650 | 7.78° C | 86% | 1011.4 hPa | 0 mm | - | 102 W/m² | - |
| 1778158353 | 7.78° C | 87% | 1011.5 hPa | 0 mm | - | 105 W/m² | - |
| 1778157752 | 7.22° C | 88% | 1011.4 hPa | 0 mm | - | 113 W/m² | - |
| 1778157452 | 6.67° C | 90% | 1011.5 hPa | 0 mm | - | 100 W/m² | - |
| 1778157151 | 6.67° C | 90% | 1011.5 hPa | 0 mm | - | 137 W/m² | - |
| 1778155652 | 5.56° C | 91% | 1011.4 hPa | 0 mm | - | 70 W/m² | - |
| 1778155352 | 5.56° C | 91% | 1011.4 hPa | 0 mm | - | 76 W/m² | - |
| 1778154450 | 4.44° C | 90% | 1011.5 hPa | 0 mm | - | 127 W/m² | - |
| 1778154150 | 4.44° C | 90% | 1011.5 hPa | 0 mm | - | 97 W/m² | - |
| 1778153849 | 4.44° C | 90% | 1011.5 hPa | 0 mm | - | 74 W/m² | - |
| 1778153252 | 3.89° C | 89% | 1011.3 hPa | 0 mm | - | 74 W/m² | - |
| 1778152952 | 3.89° C | 89% | 1011.2 hPa | 0 mm | - | 53 W/m² | - |
| 1778152351 | 3.89° C | 89% | 1011.3 hPa | 0 mm | - | 25 W/m² | - |
| 1778152050 | 3.89° C | 89% | 1011.2 hPa | 0 mm | - | 19 W/m² | - |
| 1778151453 | 3.89° C | 89% | 1011.1 hPa | 0 mm | - | 14 W/m² | - |
| 1778148452 | 3.89° C | 89% | 1011 hPa | 0 mm | - | 0 W/m² | - |
* Rain latest hour (hover to see other rain measurements)
** Current wind speed in m/s (hover to see current wind gust speed)